Temp_Advection
nan nan nan nan nan nan nan nan nan nan nan nan nan nan nan nan nan nan nan nan nan nan nan nan nan nan nan nan nan nan nan nan nan nan nan nan nan nan nan nan nan nan
nan 0 0 0 -0 -0 -0 -0 -0 0 -0 -0 0 0 -0 -0 -0 -0 -0 -0 -0 -0 -0 -0 -0 0 0 -0 -0 0 0 -0 0 -0 -0 0 0 0 -0 -0 -0 nan
nan 0 0 0 0 -0 0 0 -0 -0 -0 -0 0 -0 -0 -0 -0 0 -0 -0 -0 -0 -0 -0 0 -0 -0 -0 0 0 -0 -0 0 -0 -0 -0 0 0 -0 -0 -0 nan
nan 0 0 0 0 0 0 -0 -0 -0 -0 -0 -0 -0 -0 0 0 0 -0 -0 -0 -0 -0 -0 0 -0 -0 -0 0 0 -0 -0 0 -0 -0 -0 0 0 0 -0 -0 nan
nan 0 0 -0 0 0 -0 -0 -0 -0 -0 -0 -0 -0 0 0 0 0 -0 -0 -0 0 0 -0 0 0 -0 -0 0 0 0 -0 -0 -0 -0 0 0 0 0 -0 -0 nan
nan -0 0 0 0 0 -0 0 0 -0 -0 -0 0 0 0 0 0 0 -0 -0 0 0 0 0 0 0 -0 -0 -0 0 0 -0 -0 -0 -0 0 0 0 0 -0 -0 nan
nan 0 0 0 0 0 -0 0 0 -0 -0 0 0 0 0 0 0 -0 -0 -0 0 0 0 -0 -0 -0 -0 -0 -0 -0 -0 -0 -0 -0 0 0 -0 0 0 -0 -0 nan
nan 0 0 0 0 -0 -0 -0 -0 -0 0 0 0 -0 -0 0 -0 -0 0 -0 0 -0 -0 -0 -0 -0 0 0 -0 -0 -0 0 -0 -0 0 0 -0 -0 0 -0 -0 nan
nan 0 -0 0 0 -0 -0 -0 -0 -0 -0 -0 -0 -0 -0 0 -0 0 0 -0 -0 -0 -0 -0 -0 0 0 -0 -0 -0 0 0 0 -0 -0 0 -0 -0 0 0 -0 nan
nan 0 0 0 -0 -0 -0 -0 -0 -0 -0 -0 -0 -0 0 0 0 0 -0 -0 -0 -0 -0 0 0 0 0 -0 -0 -0 0 0 0 0 -0 0 0 -0 -0 -0 -0 nan
nan 0 0 -0 -0 -0 -0 -0 -0 0 0 0 -0 -0 0 0 0 0 -0 -0 0 0 -0 0 0 0 0 -0 -0 -0 0 0 0 -0 -0 -0 0 -0 -0 0 0 nan
nan 0 0 -0 -0 -0 -0 -0 0 0 0 0 0 0 0 0 0 0 -0 -0 0 0 0 -0 0 0 -0 -0 -0 -0 -0 0 -0 -0 -0 -0 0 0 0 0 0 nan
nan 0 -0 -0 -0 -0 -0 -0 0 0 0 0 0 0 0 0 0 0 0 -0 -0 0 0 -0 -0 -0 -0 -0 0 0 -0 -0 -0 -0 -0 -0 0 0 0 -0 -0 nan
nan 0 0 -0 -0 0 0 -0 0 0 0 0 -0 0 0 -0 -0 0 0 -0 -0 0 0 -0 -0 -0 -0 -0 0 0 -0 -0 -0 -0 -0 -0 0 -0 -0 -0 -0 nan
nan 0 0 -0 -0 0 0 0 0 -0 -0 -0 -0 0 0 -0 -0 0 0 0 0 0 -0 -0 -0 -0 -0 0 0 0 -0 -0 -0 -0 -0 -0 -0 -0 -0 -0 -0 nan
nan 0 0 -0 -0 0 0 0 0 0 -0 -0 -0 0 0 -0 -0 0 0 0 0 -0 -0 -0 -0 -0 0 -0 -0 -0 -0 -0 -0 0 -0 -0 0 -0 -0 -0 -0 nan
nan 0 0 0 0 1 1 0 0 0 0 -0 -0 0 -0 -0 -0 0 0 0 0 -0 -0 -0 -0 0 -0 -0 -0 0 -0 -0 0 0 -0 -0 0 -0 -0 -0 -0 nan
nan 0 0 0 0 1 1 0 0 0 0 -0 -0 -0 0 0 1 1 1 0 0 0 -0 0 0 0 -0 -0 0 0 -0 -0 0 0 -0 -0 0 0 -0 -0 -0 nan
nan 0 0 0 0 0 0 0 0 0 0 -0 -0 0 0 0 1 1 0 0 0 0 0 0 -0 -1 -0 0 0 0 -0 -0 0 0 -0 -0 0 0 -0 -0 -0 nan
nan 0 0 0 -0 0 0 0 0 0 0 -0 -0 1 0 0 1 1 0 0 0 0 0 -0 -1 -1 0 0 -0 -0 0 -0 -0 -0 0 0 0 -0 -0 -0 -0 nan
nan 0 0 0 0 0 1 0 0 -0 0 0 1 1 0 -0 0 0 0 0 0 0 0 -0 -1 -1 -0 -0 0 0 0 0 -0 -0 0 0 0 -1 -0 -0 -0 nan
nan 0 0 0 0 0 0 0 0 0 0 1 1 0 -0 -0 0 0 0 1 0 0 0 -0 -1 -1 -0 -0 0 0 0 0 0 -0 0 0 -0 -1 -0 -0 -0 nan
nan 0 0 0 0 0 0 0 1 1 0 0 0 0 -0 1 1 0 0 1 0 0 0 -0 -0 -0 -0 0 -0 0 1 0 0 0 0 0 -0 -0 -0 0 -0 nan
nan 0 0 0 0 0 1 1 1 1 0 0 1 1 1 1 1 0 0 0 0 0 0 0 0 -0 -0 -0 -0 0 0 0 0 0 0 -0 -0 -0 0 0 -0 nan
nan 0 0 0 0 0 0 0 0 0 0 1 1 1 1 0 0 0 0 0 0 0 0 0 0 -0 -0 -0 -0 0 0 0 0 0 -0 -0 0 0 0 0 -0 nan
nan nan nan nan nan nan nan nan nan nan nan nan nan nan nan nan nan nan nan nan nan nan nan nan nan nan nan nan nan nan nan nan nan nan nan nan nan nan nan nan nan nan
Wind_Speed
14 14 14 13 12 10 9 8 7 6 6 6 5 4 5 5 4 4 4 4 3 3 4 4 4 5 4 4 5 5 5 4 3 3 3 3 3 2 2 3 3 3
15 15 15 14 13 13 12 9 8 7 7 7 6 6 6 5 5 4 4 3 3 3 4 4 4 5 5 4 5 5 4 4 3 3 4 4 3 3 3 3 3 4
16 15 15 14 12 12 11 9 9 9 7 7 7 7 6 5 5 5 4 3 3 4 4 3 4 4 4 5 5 4 4 5 4 4 5 5 4 4 3 3 4 4
16 15 14 13 12 12 11 10 10 9 8 8 7 7 7 6 6 5 5 4 4 4 4 4 4 5 5 5 4 4 5 5 5 5 6 5 5 4 4 4 4 5
16 16 15 14 13 12 12 11 10 9 9 9 7 7 8 8 7 5 5 5 4 4 4 4 4 4 5 4 4 4 4 3 5 6 6 5 5 4 3 5 5 5
16 15 15 14 14 14 13 11 10 9 9 9 8 8 8 8 7 7 7 6 5 5 5 5 5 4 5 5 4 4 3 4 6 7 6 5 5 4 4 6 6 6
16 14 14 14 14 14 14 12 11 10 10 9 9 9 8 8 8 8 8 7 7 7 7 6 7 6 6 6 5 5 5 5 6 7 5 5 6 6 6 6 6 6
15 14 14 14 13 14 14 13 12 11 11 10 9 9 9 9 9 8 9 9 8 8 9 8 8 7 6 6 6 6 5 5 6 6 6 5 6 6 6 6 6 6
15 15 15 14 13 13 13 13 13 12 12 12 11 10 10 10 10 9 10 11 10 10 11 10 9 8 7 7 7 7 6 5 6 7 7 6 5 6 6 6 6 6
15 15 15 14 14 14 14 13 13 12 12 12 12 11 10 11 11 10 11 12 10 10 11 11 10 9 8 8 7 7 7 6 7 8 7 7 6 6 6 6 7 6
16 15 15 15 15 15 15 14 13 13 13 13 12 12 12 12 12 12 13 13 11 10 10 11 11 11 10 9 8 8 8 7 7 8 8 8 8 8 7 7 7 7
17 16 16 16 16 16 16 16 15 14 13 13 13 13 13 13 12 12 12 13 12 11 10 11 12 12 13 12 10 9 9 9 8 9 8 8 8 8 8 8 7 8
19 18 17 18 19 18 18 18 17 16 14 13 13 13 14 14 14 13 13 13 13 13 12 12 13 13 14 15 13 11 10 11 10 10 10 9 9 8 8 8 8 8
23 22 21 21 21 20 19 19 19 18 17 16 15 14 14 14 14 14 14 13 13 13 13 12 13 13 14 15 15 13 12 12 12 11 11 10 10 9 9 9 9 9
25 24 24 23 22 21 21 20 20 20 20 19 18 16 14 14 14 14 14 13 13 13 13 12 12 12 13 14 14 13 12 11 11 11 11 11 11 10 10 10 10 10
26 26 26 25 24 24 23 23 23 22 21 21 20 18 16 16 16 16 14 13 13 13 13 13 12 12 14 16 15 14 13 12 12 12 13 13 12 12 11 11 10 10
27 27 28 27 26 26 25 25 25 24 23 23 22 21 19 18 18 17 16 14 13 13 13 12 13 15 18 17 15 15 16 16 15 14 14 15 14 13 12 11 11 11
25 26 27 26 26 27 26 26 25 25 24 23 23 22 20 20 18 17 18 16 14 14 14 12 15 19 19 16 14 15 16 17 17 15 15 14 14 13 12 11 11 11
21 22 22 23 24 24 24 25 25 25 25 23 23 23 21 21 19 18 18 17 14 14 13 12 17 21 18 16 16 16 15 16 16 16 16 15 14 14 13 12 12 12
18 18 17 19 21 22 22 22 23 25 25 22 22 22 21 21 20 18 18 16 15 15 13 14 19 21 17 17 17 16 16 16 16 17 18 16 16 16 15 14 15 14
17 17 18 20 22 21 20 20 20 23 24 23 22 20 19 19 18 18 19 17 15 14 13 16 21 21 18 17 17 15 16 15 15 17 17 16 17 19 19 18 18 17
14 15 16 18 18 18 19 19 20 22 22 22 20 19 18 17 16 16 17 16 13 12 12 16 20 19 18 17 16 16 15 14 15 16 15 15 17 19 20 20 19 19
8 9 10 11 13 16 18 20 22 22 21 19 18 18 19 18 15 15 15 15 13 12 13 17 20 18 16 16 16 16 15 14 15 14 13 15 17 19 20 20 20 21
6 6 6 7 11 14 15 17 20 22 21 20 18 17 16 14 12 13 13 13 13 13 15 18 19 17 15 14 14 15 14 15 15 12 11 13 14 16 17 18 19 20
8 7 7 8 9 9 9 9 11 14 16 17 16 14 13 11 9 8 9 10 12 14 16 17 16 15 15 14 14 14 14 14 15 13 12 11 11 12 13 14 16 17
7 6 7 7 7 6 4 4 4 5 8 11 10 8 8 10 9 8 9 10 10 12 14 14 13 12 13 14 14 15 14 14 15 14 13 12 12 12 11 11 12 14
Wind_Direction
202 203 203 202 200 199 200 199 197 198 194 189 190 194 197 196 189 183 191 217 238 246 247 240 230 228 220 220 217 212 216 208 212 243 239 239 241 237 254 251 254 261
204 206 207 205 207 206 202 201 203 206 203 195 195 200 203 207 209 200 205 220 224 240 256 246 233 231 224 230 231 228 238 227 218 247 245 234 238 237 247 259 269 266
208 210 211 210 213 216 212 216 216 209 205 204 203 207 208 212 221 221 221 221 205 218 244 246 238 240 233 235 240 240 251 246 235 244 243 234 233 238 247 260 269 273
212 212 214 214 217 220 218 221 223 213 207 208 208 211 212 210 217 224 228 231 217 213 229 236 233 239 241 242 244 241 249 257 254 246 241 238 238 237 246 255 258 263
218 216 216 216 216 218 217 217 219 216 212 213 212 214 220 219 214 217 227 234 232 222 224 233 229 234 248 251 249 246 251 266 269 262 249 241 244 245 255 260 255 256
222 221 220 220 218 218 217 216 219 218 216 218 217 217 226 229 221 218 221 224 226 221 216 225 226 220 233 246 247 244 238 234 251 262 259 249 248 244 250 258 256 254
223 224 225 225 224 225 223 220 222 221 219 220 221 220 222 226 223 220 221 220 220 220 216 222 228 221 222 237 247 250 245 237 246 258 255 247 250 247 247 253 253 254
225 225 227 225 223 227 227 224 224 224 224 223 224 228 226 223 222 221 224 222 217 223 224 224 232 231 225 231 242 250 252 248 258 267 260 250 255 255 253 252 251 253
225 226 228 225 219 221 224 224 224 224 228 229 227 230 229 223 218 215 225 227 219 225 229 226 229 228 223 230 238 245 247 238 240 254 259 259 261 262 262 259 258 259
228 227 228 224 218 218 218 221 224 223 228 231 229 229 229 226 220 214 224 231 225 227 231 228 227 224 221 230 238 245 248 243 239 243 250 253 254 255 254 252 256 261
227 227 228 225 220 219 217 219 224 225 228 231 232 230 227 226 224 220 226 232 227 226 229 228 228 227 224 224 231 241 243 242 245 248 248 249 251 254 253 252 255 258
224 223 226 227 224 221 218 217 221 224 229 231 233 232 227 226 227 226 228 231 228 225 226 229 230 230 230 227 226 235 240 237 240 245 247 248 249 252 254 254 255 257
231 227 226 226 226 223 220 219 219 221 224 229 230 229 226 225 227 229 230 232 233 230 228 232 235 233 233 232 228 230 237 237 236 238 242 246 246 246 246 248 251 254
234 233 230 228 227 226 224 224 223 222 223 224 226 226 225 225 227 231 233 234 235 234 230 232 237 237 237 238 235 233 236 240 240 239 240 241 244 244 242 242 244 247
238 237 233 232 232 232 231 229 227 228 228 229 230 229 227 226 226 228 230 231 230 229 227 227 231 234 234 234 234 233 236 241 245 245 243 243 244 245 245 245 245 246
241 237 234 233 233 234 234 231 229 229 229 230 231 230 229 228 226 225 225 227 228 227 227 227 229 232 233 232 230 229 232 236 240 242 241 241 242 243 243 244 245 246
238 236 235 235 234 233 233 231 231 230 230 229 228 228 229 231 231 230 228 227 228 228 226 226 229 233 237 238 235 233 235 237 240 245 245 243 244 246 245 245 246 246
234 234 235 235 236 235 234 233 233 231 229 228 226 226 228 230 231 232 230 226 226 228 226 225 231 234 237 240 238 236 239 241 242 246 249 249 248 248 248 249 250 251
231 232 234 235 238 238 237 236 234 231 228 226 226 226 228 228 227 228 230 227 223 226 224 225 234 237 236 238 238 237 239 241 241 242 243 246 247 247 249 250 251 253
222 225 228 233 236 237 236 235 232 229 227 225 225 226 228 229 228 229 235 233 226 225 222 226 238 240 236 236 238 239 240 240 241 242 243 244 246 247 249 251 255 258
223 223 228 235 238 235 231 228 226 225 223 220 220 221 224 228 230 231 235 233 229 227 223 229 240 244 241 240 242 243 245 244 240 241 242 243 246 248 249 252 258 262
219 216 223 232 233 226 220 219 218 217 215 215 216 217 221 225 228 231 233 231 228 227 225 232 242 247 246 247 248 248 249 248 244 242 242 242 244 248 250 252 255 257
190 190 201 216 217 215 216 216 216 214 212 214 215 216 223 227 226 228 229 225 220 216 219 231 241 248 249 249 251 250 249 248 247 245 244 244 245 247 249 249 249 251
145 150 165 182 192 202 206 205 206 206 203 205 205 203 208 213 218 223 222 216 213 209 215 228 237 243 248 252 254 253 251 250 249 246 243 246 249 251 250 248 247 249
127 134 144 153 166 182 189 187 190 192 192 196 198 195 194 192 196 212 208 203 210 216 223 234 241 244 247 250 254 256 255 254 251 247 244 244 248 249 247 246 246 250
115 131 132 129 138 151 156 147 146 160 178 186 187 190 190 182 185 201 203 204 215 224 232 240 246 250 253 253 255 257 257 254 250 247 243 240 243 245 244 245 251 257
Height
1607 1608 1609 1610 1611 1613 1614 1614 1615 1616 1616 1617 1618 1618 1619 1619 1619 1619 1620 1620 1620 1620 1620 1621 1621 1621 1622 1622 1622 1622 1622 1623 1623 1623 1623 1623 1624 1624 1625 1625 1625 1625
1606 1607 1608 1610 1611 1612 1613 1614 1615 1615 1616 1616 1617 1618 1618 1618 1618 1618 1619 1619 1619 1620 1620 1620 1620 1621 1621 1622 1622 1622 1622 1622 1623 1623 1623 1623 1623 1624 1624 1624 1624 1624
1605 1606 1607 1609 1611 1611 1613 1614 1614 1615 1616 1616 1617 1617 1618 1618 1618 1618 1618 1618 1619 1619 1619 1620 1620 1620 1621 1621 1621 1622 1622 1622 1622 1623 1623 1622 1623 1623 1624 1624 1624 1624
1603 1605 1606 1608 1610 1611 1612 1613 1614 1614 1615 1616 1616 1617 1618 1618 1618 1618 1618 1618 1618 1619 1619 1619 1619 1620 1620 1620 1621 1621 1622 1622 1622 1622 1622 1622 1622 1623 1623 1624 1624 1624
1602 1604 1605 1607 1609 1610 1611 1612 1613 1614 1615 1615 1616 1617 1617 1617 1617 1618 1618 1617 1617 1618 1618 1619 1619 1619 1620 1620 1620 1621 1621 1622 1622 1621 1622 1622 1622 1622 1623 1623 1623 1623
1601 1602 1603 1605 1606 1608 1609 1611 1612 1613 1614 1615 1615 1616 1616 1616 1616 1617 1617 1617 1618 1618 1618 1618 1618 1619 1619 1619 1620 1620 1621 1622 1622 1621 1621 1622 1622 1622 1623 1622 1622 1622
1600 1601 1602 1603 1605 1606 1608 1609 1610 1611 1613 1614 1614 1615 1615 1615 1616 1616 1616 1617 1617 1618 1618 1618 1618 1618 1619 1619 1619 1620 1620 1621 1621 1620 1621 1621 1621 1621 1622 1622 1621 1621
1598 1600 1601 1602 1603 1605 1606 1607 1609 1610 1611 1612 1613 1613 1613 1614 1615 1615 1615 1616 1616 1617 1617 1617 1617 1617 1618 1618 1618 1619 1619 1620 1620 1620 1620 1620 1621 1621 1621 1621 1621 1621
1597 1598 1599 1600 1602 1603 1605 1606 1607 1608 1609 1610 1611 1612 1612 1613 1613 1614 1614 1614 1615 1615 1615 1616 1616 1616 1617 1617 1617 1618 1618 1619 1620 1620 1620 1620 1620 1620 1620 1620 1620 1620
1595 1596 1598 1599 1600 1602 1603 1605 1606 1607 1608 1608 1609 1611 1611 1611 1611 1612 1612 1612 1613 1614 1614 1614 1615 1615 1616 1616 1616 1617 1617 1618 1619 1619 1619 1619 1619 1620 1620 1620 1619 1619
1593 1595 1596 1597 1598 1599 1601 1602 1604 1605 1606 1607 1608 1609 1610 1610 1610 1610 1610 1611 1612 1612 1613 1613 1613 1614 1615 1615 1616 1616 1616 1617 1617 1617 1618 1618 1618 1618 1618 1618 1618 1619
1591 1592 1593 1595 1596 1597 1598 1599 1601 1603 1604 1605 1606 1607 1608 1609 1609 1609 1609 1609 1610 1611 1612 1612 1612 1613 1613 1614 1615 1615 1615 1616 1616 1616 1616 1616 1617 1617 1617 1617 1617 1618
1589 1590 1591 1592 1593 1594 1596 1597 1598 1599 1601 1602 1603 1604 1605 1607 1608 1608 1608 1608 1608 1609 1610 1611 1611 1611 1612 1612 1613 1614 1614 1614 1615 1615 1615 1615 1616 1616 1616 1617 1617 1617
1586 1587 1588 1589 1590 1592 1593 1594 1595 1596 1598 1599 1600 1601 1603 1605 1606 1606 1607 1607 1607 1608 1609 1609 1609 1610 1610 1610 1611 1612 1613 1613 1613 1614 1614 1615 1615 1615 1615 1616 1616 1616
1583 1585 1586 1587 1588 1589 1590 1592 1593 1594 1595 1596 1597 1599 1601 1602 1603 1605 1605 1606 1606 1606 1607 1608 1608 1609 1609 1609 1609 1610 1611 1612 1613 1613 1613 1614 1614 1614 1614 1614 1615 1615
1581 1582 1583 1584 1585 1586 1587 1588 1590 1591 1592 1593 1594 1596 1598 1599 1601 1602 1603 1604 1604 1605 1605 1606 1607 1607 1607 1607 1608 1608 1609 1610 1611 1611 1612 1612 1612 1612 1612 1613 1613 1614
1577 1578 1580 1581 1582 1582 1584 1585 1587 1588 1589 1590 1592 1593 1595 1597 1598 1599 1600 1602 1602 1603 1603 1604 1605 1605 1604 1605 1606 1606 1607 1608 1608 1609 1610 1610 1610 1610 1611 1611 1612 1612
1574 1575 1576 1578 1578 1579 1581 1582 1584 1585 1586 1587 1589 1591 1592 1594 1595 1596 1597 1599 1600 1601 1602 1603 1602 1601 1602 1603 1604 1604 1605 1605 1606 1607 1608 1609 1609 1609 1609 1610 1610 1610
1571 1572 1574 1575 1576 1577 1578 1580 1581 1582 1583 1585 1586 1588 1590 1591 1593 1594 1595 1596 1597 1598 1600 1600 1599 1598 1599 1601 1601 1602 1603 1603 1604 1605 1606 1607 1607 1608 1608 1608 1608 1608
1568 1570 1571 1572 1573 1574 1576 1577 1579 1580 1581 1582 1584 1586 1587 1589 1590 1591 1592 1594 1595 1596 1597 1597 1595 1595 1597 1598 1599 1600 1600 1601 1602 1602 1603 1605 1605 1605 1606 1606 1606 1606
1566 1567 1569 1569 1570 1572 1574 1575 1576 1577 1578 1580 1582 1584 1585 1586 1588 1589 1590 1591 1592 1593 1594 1593 1592 1593 1595 1595 1596 1597 1598 1598 1599 1600 1601 1602 1602 1603 1603 1604 1604 1604
1564 1565 1567 1568 1569 1570 1572 1573 1574 1575 1576 1578 1580 1582 1583 1584 1586 1587 1588 1589 1590 1591 1591 1590 1589 1591 1592 1593 1594 1595 1595 1596 1596 1597 1598 1599 1600 1600 1600 1601 1601 1601
1564 1565 1566 1567 1568 1569 1569 1570 1571 1572 1574 1577 1579 1580 1581 1582 1584 1585 1586 1587 1588 1589 1589 1587 1587 1588 1589 1590 1591 1592 1593 1594 1594 1595 1596 1596 1597 1597 1597 1598 1598 1598
1565 1566 1567 1567 1568 1568 1568 1569 1570 1571 1573 1576 1577 1578 1579 1581 1583 1583 1584 1585 1586 1586 1586 1585 1586 1587 1587 1588 1588 1589 1590 1591 1592 1593 1593 1594 1594 1594 1594 1594 1594 1595
1566 1567 1568 1568 1568 1569 1569 1570 1571 1572 1573 1574 1575 1576 1578 1580 1581 1582 1583 1583 1583 1584 1584 1584 1585 1585 1585 1586 1586 1587 1587 1588 1589 1590 1591 1592 1592 1592 1592 1591 1591 1592
1567 1568 1569 1569 1569 1569 1570 1571 1572 1572 1573 1573 1575 1576 1578 1578 1580 1581 1582 1582 1582 1582 1582 1582 1583 1583 1583 1583 1584 1584 1585 1586 1587 1587 1588 1589 1590 1590 1590 1589 1589 1589